328  
ASUS43 KFSD 230310  
RWRFSD  
 
WEATHER ROUNDUP FOR SE SOUTH DAKOTA/SW MINNESOTA/NW IOWA  
NATIONAL WEATHER SERVICE SIOUX FALLS SD  
1000 PM CDT FRI SEP 22 2017  
 
NOTE: "FAIR" INDICATES FEW OR NO CLOUDS BELOW 12,000 FEET WITH NO  
SIGNIFICANT WEATHER AND OR S TO VISIBILITY
.  
 
 
SDZ038>040-050-052>070-230400-  
SOUTHEAST SOUTH DAKOTA  
 
CITY SKY/WX TMP DP RH WIND PRES REMARKS
 
BROOKINGS MOCLDY 68 65 90 N6 29.81R  
CHAMBERLAIN CLOUDY 60 54 82 NW15 29.86F  
HURON MOCLDY 60 54 80 NW14 29.81R  
MADISON FAIR 64 64 100 NW6 29.81R  
MITCHELL CLOUDY 65 60 84 N8 29.80R  
SIOUX FALLS CLOUDY 74 67 78 CALM 29.79R  
WINNER CLOUDY 58 51 78 N7 29.89R  
YANKTON CLOUDY 69 61 75 VRB3 29.79R  

 
 
MNZ071-072-080-081-089-090-097-098-230400-  
SOUTHWEST MINNESOTA  
 
CITY SKY/WX TMP DP RH WIND PRES REMARKS
 
FAIRMONT PTCLDY 78 69 73 S16 29.85S  
JACKSON CLEAR 79 64 61 S15G25 29.85R  
LUVERNE CLOUDY 79 63 57 S10G16 29.81R  
MARSHALL MOCLDY 83 69 62 S14 29.78R  
MONTEVIDEO CLOUDY 82 66 57 NW25G37 29.77R THUNDER  
PIPESTONE CLOUDY 81 66 61 SW13G21 29.82R  
REDWOOD FALLS MOCLDY 83 66 56 S16 29.78R  
TRACY CLOUDY 82 69 64 S10G16 29.80R  
WINDOM PTCLDY 82 64 54 S16G26 29.83R  
WORTHINGTON CLEAR 80 68 66 S16G23 29.83R  

 
 
IAZ001>003-012>014-020>022-031-032-NEZ013-014-SDZ071-230400-  
NORTHWEST IOWA  
 
CITY SKY/WX TMP DP RH WIND PRES REMARKS
 
CHEROKEE CLOUDY 79 67 66 S16G22 29.84S  
DENISON PTCLDY 79 68 69 S15 29.90S  
ESTHERVILLE CLEAR 79 68 69 S21G30 29.85S  
LE MARS PTCLDY 82 68 61 S18G25 29.80R  
ORANGE CITY MOCLDY 82 70 65 S13G21 29.82R  
SHELDON PTCLDY 81 68 65 S16G28 29.81R  
SIOUX CITY CLOUDY 82 69 64 S16G25 29.81R  
SPENCER PTCLDY 80 67 64 S20G30 29.84S  
STORM LAKE MOCLDY 77 68 73 S15 29.88S  

 
 
ABBREVIATIONS USED IN REMARKS  
TC - TEMPERATURE IN CELSIUS  
WCI - WIND CHILL INDEX  
HX - HEAT INDEX  
VSB - VISIBILITY  
 
 
 
CLICK HERE TO GO TO PREVIOUS BULLETINS.

The Nexlab SD Page
The Nexlab IA Page
The Nexlab MN Page
The Nexlab NE Page Main Text Page